KG5VSR Weather Reports


time (UTC)temp
F
wind
direction
speed
knots
gust
knots
rain 1hr
in
rain 24hr
in
rain mn
in
humidity
%
barometer
mb
20260905071603 83 201 0.0 0.0 0.00 0.00 0.00 76 1013.8
20260905064558 83 195 0.0 0.0 0.00 0.00 0.00 76 1014.1
20260905061557 84 192 0.0 0.0 0.00 0.00 0.00 74 1014.1
20260905054555 85 211 0.0 0.0 0.00 0.00 0.00 72 1013.9
20260905051553 86 202 0.9 0.9 0.00 0.00 0.00 69 1013.7
20260905044549 87 182 0.9 1.7 0.00 0.00 0.00 68 1013.8
20260905041546 88 217 0.9 0.9 0.00 0.00 0.00 66 1013.7
20260905034544 89 241 0.9 0.9 0.00 0.00 0.00 63 1013.7
20260905031543 89 183 0.0 0.0 0.00 0.00 0.00 61 1013.7
20260905024542 90 177 0.9 1.7 0.00 0.00 0.00 59 1013.5
20260905021538 90 286 0.0 0.0 0.00 0.00 0.00 59 1013.1
20260905014534 91 198 0.0 0.0 0.00 0.00 0.00 57 1012.5
20260905011531 93 167 1.7 1.7 0.00 0.00 0.00 54 1012.2
20260905004532 93 203 0.0 0.9 0.00 0.00 0.00 53 1011.8
20260905001526 95 158 4.3 5.2 0.00 0.00 0.00 50 1011.5
20260904234524 96 233 2.6 4.3 0.00 0.00 0.00 49 1011.5
20260904231523 97 200 0.9 0.9 0.00 0.00 0.00 49 1011.4
20260904224522 97 94 2.6 2.6 0.00 0.00 0.00 50 1011.4
20260904221520 99 202 4.3 6.1 0.00 0.00 0.00 50 1011.6
20260904214519 98 32 1.7 2.6 0.00 0.00 0.00 49 1011.7
20260904211515 100 168 12.2 14.8 0.00 0.00 0.00 47 1012.3
20260904204512 98 225 0.9 1.7 0.00 0.00 0.00 49 1012.4
20260904201509 99 192 7.8 11.3 0.00 0.00 0.00 49 1012.7
20260904194509 100 141 6.1 7.8 0.00 0.00 0.00 48 1013.1
20260904191504 98 203 0.9 1.7 0.00 0.00 0.00 50 1013.4
20260904184500 97 162 6.1 7.8 0.00 0.00 0.00 51 1014.0
20260904181500 97 223 1.7 1.7 0.00 0.00 0.00 50 1014.5
20260904174456 95 252 4.3 5.2 0.00 0.00 0.00 54 1014.7
20260904171456 93 194 0.0 0.9 0.00 0.00 0.00 61 1015.2
20260904164454 93 271 0.9 0.9 0.00 0.00 0.00 63 1015.3
20260904161453 90 314 0.9 1.7 0.00 0.00 0.00 69 1015.4
20260904154449 87 197 2.6 2.6 0.00 0.00 0.00 74 1015.5
20260904151444 86 184 0.9 1.7 0.00 0.00 0.00 79 1015.3
20260904144442 83 185 1.7 1.7 0.00 0.00 0.00 85 1015.2
20260904141439 82 200 1.7 1.7 0.00 0.00 0.00 88 1015.2
20260904134436 81 289 0.0 0.0 0.00 0.00 0.00 90 1015.0
20260904131435 79 154 0.0 0.0 0.00 0.00 0.00 93 1014.7
20260904124434 77 193 1.7 2.6 0.00 0.00 0.00 95 1014.6
20260904121433 76 10 0.0 0.0 0.00 0.00 0.00 95 1014.4
20260904114433 76 294 0.0 0.0 0.00 0.00 0.00 95 1014.4
20260904111432 77 310 0.0 0.0 0.00 0.00 0.00 94 1014.2
20260904104430 77 327 0.0 0.0 0.00 0.00 0.00 92 1014.1
20260904101429 77 338 0.0 0.0 0.00 0.00 0.00 91 1013.8
20260904094428 78 176 0.0 0.0 0.00 0.00 0.00 90 1013.6
20260904091426 78 152 1.7 1.7 0.00 0.00 0.00 89 1013.8
20260904084421 78 222 0.9 0.9 0.00 0.00 0.00 88 1013.6
20260904081421 79 289 0.0 0.0 0.00 0.00 0.00 87 1013.8
20260904074421 79 183 0.0 0.0 0.00 0.00 0.00 86 1013.5